User: anonymous   Login
Location: Unspecified
(0.0000°N, 0.0000°E)
Time: 08:02:10
(UTC+02:00)
Language:

Helios 1A Rocket - Orbit

View from above orbital plane
View from above orbital plane
View from above satellite
View from above satellite

Ground track
Ground track

The orbit data is extracted from the following two-line orbital elements,

1 23608U 95033D   16243.60794419  .00000163  00000-0  20332-4 0  9999
2 23608  98.2113 155.6120 0017865 129.8276 230.4519 14.95832255144318
Epoch (UTC): 30 August 2016 14:35:26
Eccentricity: 0.0017865
inclination: 98.2113°
perigee height: 567 km
apogee height: 592 km
right ascension of ascending node: 155.6120°
argument of perigee: 129.8276°
revolutions per day: 14.95832255
mean anomaly at epoch: 230.4519°
orbit number at epoch: 14431

The dashed part of the orbit path shows where the satellite is in the earth's shadow,  

DLR